Wind_Speed
10 10 12 13 12 11 11 11 11 12 12 12 11 11 9 9 8 8 9 10 10 10 10 9 8 8 9 10 10 10 11 10 10 9 8 7 6 5 4 4 4 3 3 3 4 5 5 6 6 7 9 10 10 10 11 11 11 11 10 10 10 11 11 11 11 11 11 10 10 11 11 12 13 14 14 14 14 15 16 16 17 17 16 15 14
11 11 12 12 12 11 11 11 11 11 11 12 11 11 10 10 10 10 11 12 12 13 12 12 11 10 11 12 13 12 12 11 10 9 8 7 6 5 4 4 4 3 3 3 4 5 5 5 6 7 9 10 10 11 11 10 10 10 9 9 10 11 11 11 10 11 11 11 10 10 11 12 14 14 14 14 14 15 16 16 16 16 15 14 14
13 12 12 12 12 11 11 11 11 11 12 12 12 11 11 11 11 11 12 12 13 14 14 14 13 12 12 13 13 13 12 11 9 9 8 7 7 6 6 5 5 4 4 4 4 5 4 5 6 7 9 10 10 12 11 10 9 8 8 9 10 11 11 10 10 10 11 11 11 10 11 13 14 14 14 14 14 15 16 16 16 15 15 14 14
13 13 13 13 13 12 12 12 12 12 12 13 12 12 12 11 11 12 12 12 13 13 13 13 13 12 12 12 12 12 11 10 8 7 7 6 6 6 6 5 5 5 4 4 4 5 5 5 7 8 9 11 11 10 11 10 8 8 9 10 10 11 11 11 11 11 11 10 10 11 12 14 15 14 14 14 14 15 15 15 15 14 14 14 15
13 13 13 14 13 13 13 13 13 13 13 13 13 13 12 12 12 12 12 12 12 12 12 13 13 12 11 11 10 10 9 8 7 6 5 5 5 5 5 5 5 4 4 4 4 5 6 6 7 8 9 11 11 10 10 10 9 8 10 11 11 12 13 12 11 11 11 10 11 12 13 14 15 14 14 14 14 14 14 14 14 14 14 14 15
13 14 14 14 14 15 15 14 14 14 14 14 14 13 13 12 12 12 11 11 11 11 11 11 12 11 10 10 9 7 6 6 5 5 5 5 4 4 4 5 4 4 3 3 4 5 6 6 7 8 8 9 10 11 10 10 10 9 10 11 12 13 14 14 13 11 11 11 12 13 14 14 14 14 14 14 14 14 14 13 13 13 14 15 15
14 15 15 15 16 16 16 15 15 15 15 14 14 13 13 12 12 11 11 10 10 9 9 10 10 10 9 8 7 6 4 4 4 5 5 5 4 3 3 4 4 3 3 3 4 5 5 6 7 8 8 8 9 10 9 9 10 10 10 12 13 13 14 15 13 12 11 11 13 14 15 14 14 15 14 14 14 13 13 12 12 13 14 15 15
14 15 16 16 16 16 16 16 16 16 15 15 14 13 13 13 12 11 10 10 9 9 8 8 8 8 8 7 5 4 4 3 3 4 5 5 4 4 3 4 4 4 4 4 5 6 6 7 8 9 8 7 8 9 9 10 10 11 12 13 13 14 14 14 13 12 12 12 14 14 14 14 14 15 14 14 14 13 13 12 12 13 14 15 15
14 15 16 16 17 16 16 16 16 16 16 15 15 14 14 13 12 11 10 9 9 8 8 7 7 7 7 6 4 3 3 4 5 5 6 6 5 5 5 4 4 4 5 5 6 8 8 8 9 10 10 9 8 9 10 11 11 13 14 14 14 14 14 14 13 13 13 13 14 15 14 14 14 14 14 14 13 13 13 13 13 13 14 15 15
13 14 15 16 16 17 16 17 17 16 16 15 15 15 14 13 12 11 10 9 9 8 8 8 8 7 7 6 3 2 5 9 7 7 8 7 6 6 6 6 6 6 6 6 7 8 8 8 10 11 11 11 10 10 11 12 12 13 14 14 14 13 13 14 14 14 14 14 15 15 14 14 14 14 14 13 13 13 13 13 13 14 15 15 15
13 14 15 15 16 16 16 16 16 16 15 15 14 14 14 13 12 11 10 10 9 9 9 9 9 9 8 6 4 4 9 12 9 7 8 8 8 8 8 8 7 7 6 7 7 8 8 8 10 12 12 12 12 12 12 13 13 14 14 14 14 13 13 14 14 15 15 15 15 14 14 14 14 14 13 13 14 14 14 14 15 15 15 15 15
13 14 15 15 15 16 16 15 15 15 15 14 13 13 13 13 12 11 11 10 10 11 11 11 11 10 9 7 5 6 11 13 10 8 9 10 10 8 8 9 9 8 8 8 8 8 9 9 11 13 13 13 13 13 13 13 14 14 14 14 14 15 14 14 15 16 16 15 14 14 15 15 14 14 14 14 15 15 15 16 16 16 16 16 16
13 13 14 15 15 15 15 15 14 14 14 13 13 13 13 12 12 12 11 11 12 12 12 12 12 12 10 8 7 8 12 14 12 9 11 12 11 9 9 9 9 9 10 9 9 9 10 10 11 12 14 14 14 14 14 15 15 15 15 15 16 16 15 15 15 16 16 15 14 14 15 15 14 15 15 16 16 17 17 17 17 17 16 16 15
13 13 13 14 14 14 15 14 14 14 13 13 13 13 13 12 12 12 12 13 13 13 12 13 13 12 12 10 9 9 13 16 14 11 11 13 12 11 10 10 10 10 11 11 10 10 11 11 12 13 14 15 15 15 16 16 16 16 16 17 17 16 16 15 16 16 15 14 14 15 16 15 16 16 17 17 18 18 18 18 18 17 17 16 15
12 13 13 13 13 14 14 14 14 14 13 13 13 13 13 13 14 12 13 15 14 13 13 14 14 13 13 12 11 11 13 15 15 13 13 13 13 12 11 10 10 11 12 12 12 12 12 13 13 14 15 16 16 16 17 17 16 16 17 17 17 17 16 15 16 15 15 14 15 16 16 16 17 18 18 19 19 19 19 19 18 17 16 15 14
11 13 13 13 13 14 14 14 13 13 13 13 13 14 14 14 14 14 15 16 14 14 14 14 14 14 13 13 12 12 13 14 14 14 14 15 14 13 12 11 11 12 13 13 13 13 14 14 15 15 16 17 16 17 17 17 17 17 17 17 17 17 16 15 15 15 15 15 16 16 16 18 19 19 20 20 20 20 20 19 18 17 16 14 13
11 13 13 13 13 14 14 14 13 13 13 13 13 14 14 14 15 15 15 16 14 14 14 14 14 14 13 12 12 12 13 13 14 15 16 16 15 14 12 12 13 14 15 15 14 14 15 15 16 16 17 17 17 17 18 18 18 18 17 17 17 16 15 15 15 16 16 16 16 17 18 20 20 21 21 21 21 21 20 18 17 16 15 14 13
12 13 13 14 14 14 15 14 14 13 13 13 13 14 14 15 15 15 15 15 14 13 13 13 13 13 13 12 12 12 13 15 14 14 16 16 15 14 12 13 15 16 16 16 15 15 15 16 17 17 17 17 17 17 18 19 18 17 17 16 16 15 15 15 16 16 17 17 18 19 20 21 22 22 22 22 21 20 19 18 17 15 14 13 13
13 13 14 14 14 15 15 15 14 14 14 13 13 14 14 15 15 15 15 15 14 13 13 13 13 13 13 12 12 12 13 15 14 14 16 16 16 15 13 15 16 17 17 16 16 16 16 16 17 17 17 17 17 17 18 18 18 17 17 16 15 15 15 16 17 17 17 18 20 21 22 22 23 23 22 22 21 20 18 17 16 14 13 13 13
13 13 14 14 15 15 15 15 14 14 14 14 14 14 14 15 15 15 15 14 13 13 12 13 13 13 13 13 12 13 14 15 15 15 17 17 17 16 15 16 17 17 17 17 16 16 16 17 17 17 17 17 17 18 18 18 17 17 16 16 16 16 17 17 17 18 19 20 22 22 23 23 24 23 22 21 20 19 17 16 14 14 13 13 13
13 13 14 14 15 15 15 15 15 15 15 14 14 14 14 15 15 15 14 13 12 12 12 13 13 13 13 13 13 13 14 15 15 15 17 18 17 16 15 16 16 17 17 17 17 16 17 17 17 16 16 16 17 17 17 17 17 16 16 16 17 18 18 18 18 19 20 22 23 24 24 24 24 22 21 20 19 17 15 14 13 13 13 14 14
13 14 14 14 15 15 16 15 15 15 15 14 14 14 15 16 16 15 14 12 12 12 12 12 13 13 13 13 13 14 15 15 14 15 17 18 17 15 15 16 16 16 16 17 17 18 18 19 18 16 16 16 16 16 16 16 16 16 17 18 19 19 19 20 20 21 22 23 24 24 24 24 22 21 20 18 17 15 14 13 13 13 14 14 15
12 13 14 14 15 15 16 16 15 14 14 14 14 14 15 15 15 15 14 12 12 12 11 12 12 13 13 13 13 13 14 14 14 14 15 17 16 15 15 16 16 16 17 17 18 19 19 18 17 16 16 16 16 16 16 16 16 16 18 19 20 21 21 22 22 23 23 24 24 24 24 23 21 19 18 16 15 14 13 13 14 14 14 15 16
11 12 13 14 14 15 15 15 15 14 14 14 14 14 14 15 15 15 14 13 12 12 11 12 12 12 13 13 13 13 13 13 14 14 15 16 16 16 16 16 16 17 17 18 19 19 18 17 16 15 16 16 17 16 16 15 16 18 19 21 22 22 22 23 24 23 23 24 24 24 23 21 19 18 16 15 14 13 13 14 14 15 15 16 17
11 11 12 13 13 14 14 14 15 14 14 14 14 14 14 15 15 15 14 13 12 12 12 12 12 12 12 12 13 13 14 14 15 14 15 16 16 16 16 16 17 17 18 18 19 18 16 15 15 15 16 16 16 16 17 17 18 19 21 22 23 23 23 24 23 23 23 24 24 23 22 20 18 16 15 14 13 13 14 15 15 16 16 17 17
10 10 11 11 11 13 13 13 14 14 15 14 14 14 15 15 15 14 13 12 12 12 11 12 12 12 12 12 12 13 14 14 15 14 15 17 17 16 16 16 17 17 17 18 18 16 15 15 15 15 16 16 16 17 19 20 20 21 22 23 23 23 23 24 23 23 23 23 23 21 20 18 17 16 14 13 12 13 15 16 16 16 17 17 17
10 10 10 10 10 11 12 12 13 14 15 15 15 15 15 15 14 13 12 12 11 11 11 11 11 11 12 12 12 14 14 14 14 14 15 17 18 17 17 17 17 18 17 17 17 16 16 16 15 16 16 17 18 19 21 22 22 22 22 23 23 23 23 23 23 23 23 22 21 20 19 17 16 15 14 13 13 15 16 17 16 17 17 17 17
10 10 10 10 10 10 10 11 12 14 15 15 14 15 15 15 15 13 13 12 12 13 12 12 12 12 13 13 13 14 14 13 13 14 15 17 18 18 17 18 18 18 18 17 17 17 17 16 16 17 18 19 21 22 22 23 23 23 22 22 23 23 23 23 23 23 22 21 20 19 17 16 15 14 14 14 15 16 17 17 17 17 18 17 17
10 9 10 10 10 9 9 10 11 13 14 15 14 14 14 14 14 14 14 14 14 14 14 13 13 13 13 14 14 14 13 13 13 14 15 17 18 18 18 19 19 19 18 18 18 18 18 18 18 19 21 22 23 23 23 23 23 23 23 22 23 23 22 22 22 22 21 20 19 17 16 15 15 14 14 15 16 17 17 17 17 18 18 17 18
10 9 9 10 10 9 9 9 10 12 14 15 15 14 15 15 14 14 14 15 15 15 14 14 13 13 13 14 14 14 14 14 14 15 16 17 18 18 18 19 20 19 19 18 18 19 19 20 21 23 24 25 25 25 24 24 23 23 23 22 22 22 22 21 21 21 20 19 17 16 15 14 15 15 15 16 16 17 17 17 18 18 18 18 18
10 9 9 10 9 9 9 9 9 11 12 14 15 15 15 15 15 15 15 15 15 14 14 13 13 13 13 13 13 14 14 15 15 15 16 17 18 18 19 20 20 19 19 19 19 20 21 23 24 25 26 26 26 25 24 23 23 23 22 22 21 22 22 21 20 19 18 17 16 15 14 14 15 16 16 16 17 17 18 18 18 18 18 18 18
11 10 9 9 9 8 9 9 9 10 10 12 14 14 14 14 14 15 15 15 15 14 13 13 13 12 13 13 13 14 15 15 15 16 17 17 18 18 19 20 20 20 19 20 21 22 24 25 26 26 26 26 25 24 23 22 22 22 22 21 20 20 21 20 19 18 17 15 14 14 14 15 15 16 16 16 17 17 18 18 18 18 18 18 17
12 10 9 9 9 8 9 9 8 8 9 10 12 13 13 13 14 14 14 15 14 14 13 13 12 12 12 13 13 14 15 15 15 16 17 18 19 19 19 20 20 20 21 21 23 24 25 25 25 26 25 25 24 23 22 21 20 20 20 20 19 19 19 19 18 16 15 14 13 14 14 15 15 16 16 16 17 18 18 18 18 18 18 17 17
11 11 10 9 9 9 8 8 8 9 9 10 11 12 12 13 14 14 14 15 15 14 13 13 13 13 13 13 13 13 15 16 16 16 17 18 19 19 20 20 21 21 21 22 23 24 24 24 24 24 24 23 22 22 21 20 19 18 19 18 17 17 17 17 16 15 14 13 13 13 15 15 15 15 16 16 17 18 18 18 18 18 17 17 16
11 11 11 10 9 9 9 8 8 9 10 10 11 11 11 13 14 15 15 15 15 14 13 13 13 13 14 14 13 13 14 16 16 16 17 18 20 20 20 21 22 22 22 23 23 23 23 23 23 22 21 21 20 20 19 18 17 17 17 17 16 16 16 16 15 14 13 12 12 13 14 15 15 15 15 16 17 18 18 18 18 17 17 16 15
11 11 11 11 11 10 10 9 9 9 10 11 11 10 11 12 14 15 15 15 16 15 14 14 13 14 15 15 14 14 14 16 17 17 17 18 19 20 20 21 21 22 22 23 22 22 22 21 21 20 19 18 18 17 17 16 15 15 15 14 14 14 14 14 13 12 11 11 11 12 13 14 15 16 16 16 17 17 18 18 18 17 16 15 14
11 12 12 12 12 11 11 10 10 10 10 11 11 10 10 12 14 15 15 15 16 16 16 15 15 15 15 15 15 15 15 16 17 17 18 18 18 19 19 19 20 20 21 21 21 21 20 20 19 18 18 17 16 15 15 14 13 13 13 12 12 12 13 12 12 11 10 10 10 11 12 14 15 16 16 16 16 17 17 17 17 16 15 14 13
12 12 12 13 12 12 12 11 11 10 10 11 11 11 11 11 13 14 14 14 15 16 16 16 15 15 16 16 15 15 15 16 16 17 18 18 18 18 18 18 18 18 18 19 19 20 19 19 18 17 17 16 16 15 14 13 12 11 11 11 11 11 11 10 10 10 9 9 9 10 12 14 15 16 16 16 16 16 16 16 15 15 14 13 13
13 12 12 13 13 12 12 12 11 11 11 11 12 12 12 12 13 14 14 14 14 15 15 15 15 16 16 16 15 15 15 15 16 17 17 18 18 18 18 17 17 17 16 16 17 18 18 18 17 16 16 16 15 15 14 13 12 11 10 9 10 10 10 9 8 8 8 8 9 10 12 14 15 16 16 16 16 16 15 15 14 13 13 12 12
13 13 13 14 14 13 13 13 12 12 12 12 12 13 12 12 12 13 13 13 14 14 14 14 14 15 16 15 15 15 15 15 16 17 17 17 17 17 18 17 17 17 16 15 15 15 16 17 16 15 14 14 14 14 14 13 12 12 10 9 9 10 9 8 7 6 6 8 9 9 11 13 14 15 16 16 16 15 14 13 13 12 12 12 11
13 13 13 14 14 13 14 14 14 13 13 12 12 12 12 11 11 12 12 12 12 13 13 13 14 15 15 15 15 15 15 15 16 16 17 16 16 16 17 17 17 17 16 16 15 15 15 15 15 14 13 13 13 13 12 11 11 10 10 10 9 9 9 8 6 5 5 6 8 9 11 12 12 13 15 16 16 15 14 12 12 11 11 11 10
14 14 13 14 14 14 14 15 15 14 13 13 11 11 11 10 10 10 11 11 12 12 12 12 13 14 15 15 14 14 15 15 16 16 16 16 16 15 15 15 16 15 15 15 14 14 14 14 14 14 13 12 12 12 11 10 10 8 8 9 9 9 9 8 6 4 4 5 7 9 10 10 10 12 13 15 16 15 13 12 10 10 10 9 9
14 14 13 14 15 15 15 15 15 15 14 14 12 11 11 10 9 9 9 10 10 11 12 11 11 12 14 14 14 14 14 15 15 16 16 16 16 16 15 15 15 15 14 14 13 13 13 13 13 14 13 12 12 11 11 10 9 9 8 8 8 8 8 9 7 5 4 5 6 8 9 8 8 9 11 14 15 14 13 12 10 9 8 8 8
15 15 14 14 15 15 15 15 16 16 16 15 13 12 11 10 9 8 8 9 9 10 11 12 12 12 12 14 14 14 14 14 15 16 16 16 16 16 16 15 15 15 14 14 13 12 12 12 12 13 13 13 12 11 11 9 9 9 9 8 9 8 8 8 8 7 5 5 5 6 7 7 6 7 9 12 13 13 12 11 9 8 7 7 6
16 16 15 15 15 15 15 16 16 17 17 16 16 14 13 13 12 11 10 9 9 9 9 11 11 12 12 13 14 14 14 14 14 15 16 16 16 16 16 16 15 15 14 14 14 13 12 12 12 12 12 12 11 11 11 10 9 8 8 8 8 9 9 9 9 8 7 5 4 5 5 5 5 6 8 10 12 12 10 9 9 8 7 6 5
15 15 15 15 14 14 15 15 16 17 18 18 17 17 16 15 14 12 11 10 10 10 9 9 10 10 11 12 13 13 14 14 14 15 15 15 15 14 14 14 14 13 13 13 13 13 13 13 13 13 12 11 11 10 10 11 10 9 8 7 8 9 8 8 9 9 8 6 5 4 4 4 5 5 7 8 10 10 9 8 8 7 6 5 4
14 14 14 14 14 15 15 15 15 16 17 18 17 17 16 15 13 11 10 9 9 9 9 8 9 9 9 10 11 13 13 14 14 14 13 13 12 12 12 12 11 11 11 11 11 12 12 12 13 13 12 12 11 10 9 9 9 9 9 8 8 8 8 8 9 9 8 7 5 4 3 3 4 4 4 6 8 8 8 7 6 6 5 4 3
12 13 13 14 15 15 15 15 15 15 16 16 16 15 14 14 13 12 11 10 9 8 7 7 8 8 8 9 10 12 13 13 13 13 12 12 11 10 11 11 10 9 9 9 10 11 11 11 12 12 12 12 11 11 10 8 8 9 9 9 9 9 9 9 10 10 9 7 6 5 4 3 3 2 2 3 5 6 7 6 5 4 4 3 3
11 12 13 14 14 14 15 16 16 15 15 15 14 13 13 14 13 13 13 12 12 10 9 8 8 8 8 8 9 10 11 12 12 11 11 11 10 10 10 10 9 9 9 9 9 9 10 10 11 11 11 11 11 11 11 10 9 8 8 8 9 10 10 10 10 11 10 8 6 6 5 4 3 1 1 1 2 3 5 5 4 4 4 3 2
10 10 12 13 13 14 15 16 16 16 15 14 14 14 14 14 14 14 14 13 13 12 10 10 10 9 9 9 8 9 10 11 11 10 10 11 10 10 10 9 9 9 9 9 9 9 8 9 9 10 10 11 11 11 10 11 10 9 9 8 9 10 10 10 10 10 10 9 7 6 5 4 3 2 1 2 3 2 3 4 4 4 4 3 1
9 9 10 13 13 13 14 15 16 16 15 14 15 15 15 15 15 15 15 14 14 13 12 11 11 10 10 10 9 9 10 11 11 11 10 10 10 10 10 9 9 9 9 9 9 9 8 7 8 8 9 10 11 11 10 10 10 9 9 9 9 9 9 9 9 9 9 9 8 7 6 5 4 3 1 2 3 4 4 4 4 4 4 3 2
Wind_Direction
106 104 103 109 116 117 119 120 122 126 129 132 133 134 137 136 132 129 126 123 121 121 121 118 114 109 108 109 110 112 113 115 116 116 115 113 113 118 127 135 139 141 151 147 134 129 131 130 130 128 117 114 122 123 118 116 115 112 112 115 115 113 111 111 109 104 96 88 81 77 77 81 86 91 95 97 99 101 98 92 89 86 84 80 76
110 107 106 109 113 117 117 116 118 121 123 122 121 120 120 117 116 115 113 113 113 115 116 117 116 115 115 114 115 116 117 118 120 121 121 122 123 125 131 136 136 134 135 133 130 134 141 138 135 129 116 117 122 117 115 118 115 115 119 118 114 111 111 111 108 103 96 90 82 77 81 89 94 96 97 97 98 97 93 90 87 84 81 78 74
111 111 109 110 115 118 116 114 114 115 115 111 109 108 108 108 107 106 104 104 106 109 111 112 115 117 117 116 116 116 117 118 120 124 128 130 129 130 131 130 127 125 123 119 121 128 143 146 138 129 121 123 122 120 123 120 119 126 125 115 112 112 112 110 107 103 98 91 85 81 86 95 99 98 97 97 98 93 89 87 85 82 78 74 71
110 113 114 115 118 118 116 115 115 114 112 109 108 108 109 109 108 106 103 103 104 105 105 106 108 111 112 113 113 113 115 118 120 122 125 124 122 124 122 122 121 119 116 116 119 128 142 152 145 133 128 126 120 120 122 122 132 138 125 115 114 114 112 108 107 106 100 93 90 91 95 100 101 98 97 96 94 90 86 85 83 80 76 72 68
109 112 114 117 119 118 117 118 117 117 116 114 113 113 112 111 109 106 105 103 103 102 101 102 103 104 106 108 109 111 116 119 120 118 112 102 103 107 111 115 115 113 109 114 123 134 141 150 150 138 132 127 124 125 129 136 141 133 120 115 114 113 112 110 110 108 102 97 96 99 102 101 100 98 97 94 91 88 85 83 81 77 74 71 68
109 111 114 118 119 119 119 120 119 118 116 114 113 112 112 110 108 105 103 100 99 99 100 102 104 107 110 112 114 117 120 124 124 118 102 85 85 97 111 116 112 113 115 127 133 139 143 146 150 140 132 130 134 137 140 142 132 120 112 110 111 112 113 113 111 107 102 101 100 104 105 102 100 99 96 93 90 88 85 81 78 74 72 71 71
111 113 115 117 118 118 119 119 119 118 114 111 111 112 112 110 107 103 101 99 98 99 101 105 109 113 114 118 122 126 137 143 136 119 102 89 89 103 113 115 121 131 130 140 137 136 143 141 142 141 137 134 133 133 135 128 114 108 104 106 110 112 114 113 111 107 103 103 104 106 105 103 101 98 94 90 88 87 84 80 75 73 72 73 74
111 112 113 114 114 116 117 118 116 114 112 112 112 112 110 106 103 101 101 101 102 102 103 105 108 110 110 114 121 140 160 146 117 99 94 96 106 111 106 112 128 135 131 141 137 135 142 141 139 141 143 140 135 131 126 115 105 101 101 106 112 114 115 113 111 108 105 106 107 107 104 101 99 97 92 88 87 86 84 80 76 74 76 77 78
110 110 112 113 114 116 116 115 113 112 112 113 112 110 106 103 102 102 103 102 103 104 104 103 101 101 100 102 112 154 146 99 90 91 93 101 110 108 102 104 114 117 126 138 135 134 140 142 143 143 143 142 142 136 122 114 109 105 104 108 113 115 115 113 112 109 107 107 108 106 102 98 95 94 91 89 88 87 85 82 79 79 80 81 83
109 110 112 114 116 116 115 114 113 112 111 111 109 107 105 105 105 105 105 104 104 101 98 95 92 90 88 89 90 103 89 85 90 98 100 103 102 99 97 99 105 111 121 129 126 128 134 138 142 142 141 142 143 136 124 119 114 109 109 111 112 113 113 113 112 109 108 106 106 104 99 94 91 92 92 91 89 87 85 84 84 85 86 87 89
111 111 113 115 115 114 113 113 112 111 108 107 106 106 107 107 107 108 107 105 101 94 90 88 88 87 86 87 81 80 84 86 88 93 96 94 89 92 99 104 108 110 114 117 117 122 128 134 137 137 137 139 138 131 125 123 117 112 111 112 113 112 112 112 110 108 107 105 103 101 97 93 92 93 93 92 90 88 88 88 89 90 92 94 94
111 111 112 112 111 110 109 109 108 107 106 105 106 107 107 107 108 108 105 100 94 89 86 87 88 89 88 86 75 76 85 89 91 87 86 87 87 87 93 104 109 107 108 111 115 120 125 134 137 135 137 137 134 128 125 123 116 112 112 113 112 111 111 110 108 108 106 104 101 98 95 93 95 95 94 93 91 92 93 93 94 96 98 98 94
111 110 110 109 108 107 107 106 105 104 105 105 105 103 101 102 104 104 104 98 92 88 87 88 89 89 88 84 77 75 84 91 93 88 83 86 86 82 82 91 100 107 111 114 117 121 126 134 135 135 137 134 131 129 125 121 115 113 113 113 111 111 111 109 109 106 103 102 99 96 95 96 97 96 95 95 96 97 98 99 100 102 101 97 93
114 111 109 107 108 108 107 107 105 104 103 101 99 97 98 99 98 100 102 97 92 89 87 86 86 87 86 85 81 75 82 90 93 88 84 87 85 82 82 87 96 106 114 118 122 126 129 133 134 134 134 129 128 126 122 117 114 114 114 113 113 112 111 110 108 104 101 99 97 97 98 100 99 98 99 100 101 101 102 104 104 103 99 94 90
116 113 109 108 110 109 108 107 106 103 100 100 101 102 103 101 98 99 99 95 92 88 85 82 81 82 83 82 77 71 77 87 92 89 85 88 89 88 90 93 98 106 113 119 123 127 130 132 133 133 130 126 124 121 118 116 116 115 114 114 114 112 111 110 107 102 99 98 99 101 103 103 103 103 104 105 105 105 106 106 105 101 95 90 86
117 115 113 112 113 111 110 107 105 104 104 106 105 104 102 101 100 99 96 93 91 89 85 81 79 79 80 78 71 66 67 77 87 88 83 83 85 88 91 94 98 103 108 114 118 124 128 131 132 131 128 125 123 121 119 118 116 115 114 114 113 112 111 108 104 101 100 102 105 106 107 106 107 108 108 108 108 108 108 105 101 96 91 88 83
120 117 116 115 116 114 111 109 108 108 108 108 105 102 100 100 99 98 96 95 93 90 86 81 78 77 78 76 70 63 57 60 70 79 78 77 79 80 85 93 97 100 104 109 114 121 126 130 129 127 125 124 124 123 120 118 117 116 115 113 111 111 110 106 103 103 106 110 110 110 110 110 111 111 111 111 110 108 106 101 97 93 90 86 80
122 120 119 118 116 114 112 111 112 110 107 107 104 100 100 100 98 96 96 96 95 91 86 81 77 76 76 75 72 66 59 54 54 64 69 71 76 77 84 94 97 99 102 106 111 116 121 124 124 124 124 123 123 122 119 118 117 117 116 113 112 110 107 106 107 110 113 115 114 113 113 113 113 112 112 111 108 106 102 98 95 92 88 82 75
124 123 121 119 116 113 113 113 112 108 106 104 101 101 101 101 98 97 96 96 96 91 86 81 77 75 75 75 74 70 66 59 53 56 62 65 71 75 85 95 96 99 102 105 109 113 117 120 121 122 123 122 122 120 118 118 119 118 117 115 112 109 108 110 113 117 118 117 116 116 116 116 114 113 112 109 106 103 100 97 94 90 85 77 69
124 123 121 119 116 113 112 110 108 104 103 102 102 102 102 100 96 95 96 96 95 90 85 81 78 76 76 75 75 73 69 66 60 56 59 61 65 73 85 93 96 100 103 106 109 113 116 117 118 119 119 118 119 119 118 119 120 119 117 115 112 111 113 116 119 120 119 118 118 118 118 116 114 113 110 107 104 101 98 95 92 87 79 71 67
123 122 120 118 115 112 109 104 101 100 101 102 102 100 99 97 94 93 93 94 92 89 86 81 79 78 78 77 75 75 71 69 65 60 59 59 60 70 83 93 98 101 104 108 111 114 116 115 114 113 112 114 116 116 117 119 120 119 117 116 115 116 118 120 121 121 120 120 119 119 117 115 113 111 108 105 102 99 96 93 88 80 73 70 69
120 119 117 115 113 110 106 101 98 98 101 103 102 99 98 96 92 91 92 94 92 89 86 82 78 78 80 79 77 76 74 71 67 61 61 62 64 72 85 96 101 103 106 110 113 115 113 111 110 110 112 113 115 115 116 117 118 117 117 118 119 119 120 121 121 120 121 121 120 118 116 113 111 109 106 103 100 97 94 89 82 75 73 72 74
115 115 113 112 111 109 106 102 98 98 102 103 103 101 99 95 91 90 92 96 95 91 86 82 79 78 80 81 79 76 73 71 67 63 64 66 70 79 92 101 106 107 109 111 112 111 109 108 109 113 116 117 116 115 115 115 117 117 119 120 120 120 120 120 120 121 122 121 119 117 114 111 109 106 103 101 98 95 91 84 78 75 76 77 80
110 109 108 109 110 108 106 103 100 99 102 103 103 100 97 93 91 90 93 97 98 95 89 84 83 82 84 83 80 75 71 71 70 69 69 70 75 85 96 106 110 110 111 111 110 109 108 109 110 114 118 117 115 114 114 115 117 119 120 120 120 120 120 120 121 122 123 121 118 115 112 109 107 104 102 99 96 92 86 81 78 78 80 82 85
107 105 105 108 110 109 107 104 102 101 102 103 102 99 95 92 91 90 92 96 98 96 92 88 86 85 85 81 78 76 74 75 75 74 73 74 80 90 100 110 115 113 112 112 111 111 110 109 109 112 115 114 113 113 115 116 118 120 121 120 120 120 120 121 122 123 122 119 116 113 110 108 106 104 101 97 92 87 83 81 82 82 84 87 89
108 104 104 106 108 111 109 105 105 103 101 100 99 98 96 94 93 91 90 93 95 95 93 89 86 85 83 79 78 79 79 79 77 77 76 76 82 92 102 112 118 118 116 115 114 113 112 109 108 111 113 112 111 114 116 118 119 120 121 121 120 120 121 122 122 122 120 117 114 111 109 107 106 103 98 94 89 86 85 85 85 86 88 90 89
111 108 106 106 108 111 109 106 105 104 103 101 100 98 96 94 93 92 91 94 94 93 91 89 89 87 85 82 83 84 83 81 79 79 80 79 82 92 103 111 118 120 119 118 116 115 112 109 109 111 111 111 113 115 117 119 119 120 120 119 119 120 121 121 121 121 118 115 112 110 108 107 104 100 96 92 89 88 88 88 88 89 91 91 87
111 109 109 108 107 108 107 106 105 105 104 103 103 101 98 95 92 91 92 94 93 92 91 91 92 91 87 85 87 89 87 84 82 82 83 83 83 91 103 111 116 119 119 118 117 115 111 109 109 110 111 113 115 117 118 119 119 120 120 119 119 120 120 120 120 118 116 113 110 109 107 105 102 99 95 93 91 90 90 89 90 93 93 90 87
112 109 108 107 107 107 104 105 107 106 103 103 105 104 101 98 94 91 91 93 93 93 92 92 92 91 89 90 93 94 92 89 87 85 85 86 86 90 101 109 114 115 116 116 116 114 111 111 111 112 115 116 117 117 118 118 119 119 119 119 119 119 119 118 117 115 113 111 109 108 106 104 101 98 96 94 94 93 92 91 93 95 93 90 89
112 109 106 106 108 110 106 106 109 107 105 105 105 103 101 100 98 93 91 94 93 92 90 91 91 90 91 96 99 98 96 93 89 89 88 88 88 90 97 105 111 112 114 115 114 112 112 113 114 115 117 117 118 118 118 119 119 118 118 118 118 117 117 116 114 111 110 109 109 108 106 103 100 98 97 97 97 95 94 94 97 96 93 91 90
112 111 108 107 110 111 109 110 112 109 106 107 107 105 102 101 100 97 95 94 92 90 88 89 90 90 93 99 102 101 98 94 92 92 91 91 91 92 95 101 106 109 111 112 112 112 114 115 117 118 118 118 119 118 119 119 119 118 118 118 117 116 115 115 113 111 110 110 109 108 105 102 100 100 100 100 98 96 96 98 99 97 94 92 92
116 116 113 111 112 111 110 114 118 112 108 110 112 110 107 106 104 101 99 97 95 92 88 88 89 90 93 99 102 100 97 96 97 96 95 94 94 94 95 97 102 106 109 111 112 113 115 117 118 119 120 120 120 120 121 121 120 119 119 119 118 115 115 115 114 113 112 111 110 107 103 101 101 102 103 102 100 99 99 101 101 98 95 93 93
121 123 121 117 114 112 113 118 122 118 116 117 116 116 115 115 112 108 105 103 100 95 91 90 91 93 93 97 100 99 98 100 101 101 99 99 97 97 97 99 101 105 108 111 113 115 117 119 119 120 121 122 123 123 123 122 121 120 120 120 118 116 115 116 115 114 113 112 111 107 103 101 102 104 105 104 102 102 103 104 102 98 96 95 95
127 129 129 127 119 115 118 123 124 122 125 125 122 122 122 123 122 118 114 110 106 100 97 96 95 95 95 97 100 99 99 101 104 104 103 102 101 102 103 105 107 109 111 113 114 117 118 120 120 120 121 122 124 124 124 123 124 123 122 121 119 117 117 116 115 113 114 114 111 107 104 103 104 106 106 105 104 104 106 105 103 99 97 96 96
133 134 136 135 126 121 121 123 126 128 131 131 131 130 130 131 128 124 120 115 113 109 106 104 101 99 99 99 101 102 101 102 105 106 106 106 106 107 108 110 112 114 115 116 117 117 118 118 118 119 120 122 123 124 124 126 129 127 124 122 120 118 117 115 113 115 117 116 111 106 105 106 107 108 106 105 105 106 108 107 104 101 98 97 97
141 140 142 144 138 133 126 122 128 133 134 134 136 138 137 136 131 127 123 120 119 117 115 112 107 104 103 103 104 105 105 105 107 108 109 109 110 112 113 114 116 118 119 119 118 117 117 117 117 118 120 122 122 123 125 129 131 127 124 123 119 116 115 113 114 118 119 114 108 105 105 108 109 108 105 104 105 107 109 108 105 102 100 98 98
150 147 146 149 148 142 133 128 131 135 136 137 139 142 144 142 135 130 127 125 123 122 120 115 111 109 108 109 109 109 109 108 109 111 112 113 114 116 117 118 119 121 121 121 120 118 117 116 117 120 123 125 124 124 126 130 129 126 125 123 118 114 113 113 116 118 115 109 106 105 107 109 110 108 104 103 104 106 107 106 105 103 101 99 98
154 153 148 151 154 148 140 136 135 135 138 141 143 145 149 150 142 137 136 131 126 124 120 117 114 112 111 112 113 113 113 112 112 113 114 116 117 119 119 120 121 123 123 123 123 122 121 121 122 125 127 127 126 127 129 131 129 126 126 126 120 115 112 112 112 111 110 107 104 104 107 110 111 108 106 105 105 106 106 106 105 103 101 98 96
157 158 153 152 157 156 150 145 139 136 138 142 146 149 154 159 152 147 146 139 132 128 122 120 118 115 114 114 115 116 117 118 117 116 116 116 119 120 120 121 122 124 126 126 126 127 127 128 130 131 130 128 126 127 129 130 130 130 133 131 121 113 109 107 105 105 107 106 103 104 107 110 111 109 108 107 106 106 107 107 107 104 100 97 95
163 163 159 156 158 161 158 153 148 144 142 143 147 150 155 161 158 154 153 147 139 134 130 129 125 120 118 118 119 119 120 122 122 120 118 118 119 120 121 123 124 126 129 131 132 134 133 134 136 137 133 131 128 127 128 129 130 134 139 136 126 117 111 106 102 103 106 104 103 105 110 113 113 111 111 110 108 107 108 108 108 105 101 98 96
171 169 164 158 160 166 164 161 158 154 149 147 147 147 150 155 157 156 154 151 145 140 139 137 133 128 125 125 124 122 122 123 124 122 121 121 121 121 122 123 125 127 129 132 135 138 137 137 139 140 138 135 132 129 127 126 126 131 136 135 131 123 116 111 105 105 106 104 104 109 114 115 114 113 114 113 111 110 109 109 108 107 104 101 99
179 175 170 161 162 169 170 167 166 161 156 153 150 145 146 148 149 150 149 149 149 146 145 144 139 135 131 129 128 127 126 124 123 122 123 125 125 126 126 127 128 128 129 132 134 136 137 139 140 143 145 142 137 133 128 125 125 128 129 131 132 127 123 122 119 117 110 102 106 113 115 115 113 114 117 117 114 112 111 110 110 108 106 103 101
187 182 177 169 166 170 173 172 171 168 164 160 157 151 148 148 145 142 143 144 148 150 150 149 145 140 137 135 134 133 133 129 127 125 125 127 128 129 131 134 135 134 135 135 134 134 137 139 141 145 150 150 146 141 135 131 131 131 131 133 136 132 126 124 125 124 117 108 112 118 117 115 112 113 119 119 116 114 113 114 114 111 107 102 100
194 190 185 180 174 172 173 174 174 174 172 168 165 163 158 154 152 149 145 145 149 153 155 154 149 146 143 141 140 140 138 136 134 132 132 132 131 133 136 138 138 136 138 139 138 138 141 144 145 148 152 154 153 149 144 141 139 137 137 139 139 135 130 130 130 128 121 117 121 123 120 115 108 108 116 118 116 114 115 118 118 115 110 102 98
198 196 192 190 183 176 174 175 177 175 175 176 173 173 173 168 165 162 159 157 155 153 155 155 150 149 149 147 145 144 142 141 141 141 141 139 137 138 137 135 133 132 134 137 140 144 149 153 152 152 155 156 157 156 151 150 147 143 142 142 139 137 138 138 136 131 125 122 123 122 118 108 97 100 111 116 116 115 117 121 122 116 109 102 97
198 198 198 199 193 185 179 177 180 178 177 180 179 178 180 178 173 167 163 162 158 152 151 153 149 147 150 149 147 148 148 146 146 148 147 145 143 141 136 130 128 129 131 133 138 145 152 156 154 153 156 157 157 159 158 155 152 149 147 144 141 141 144 142 138 132 127 123 118 113 108 100 91 93 106 115 118 118 119 124 123 116 112 106 98
199 199 201 204 200 194 189 183 183 183 181 182 183 182 182 180 173 166 161 162 162 155 149 150 148 146 147 150 149 148 150 149 148 150 149 146 143 140 135 131 132 134 136 139 141 144 148 151 152 151 154 154 151 154 158 155 151 148 146 144 142 143 145 145 139 133 128 127 125 117 108 102 93 84 96 111 118 120 121 120 118 115 114 108 95
201 202 203 205 204 199 197 193 189 189 187 185 185 183 182 181 175 170 166 164 165 163 156 154 152 148 148 151 151 150 151 150 149 148 146 145 143 142 142 142 147 149 149 150 147 145 145 146 148 148 149 150 148 150 153 154 152 148 144 143 142 142 146 149 144 137 132 134 136 134 135 133 117 102 104 112 118 126 126 120 114 112 106 96 83
202 204 204 205 206 204 202 200 198 196 192 188 188 185 183 185 182 178 174 169 169 172 169 163 159 157 155 151 150 150 150 147 146 146 144 144 147 150 152 154 159 162 161 160 154 147 145 145 145 144 145 146 148 151 150 149 151 149 142 141 142 143 149 154 150 142 139 143 147 144 145 150 145 145 140 90 95 125 125 112 101 91 79 67 60
203 203 203 205 206 205 204 205 205 204 198 189 187 186 184 188 188 185 183 179 175 174 174 171 166 165 164 157 153 153 152 149 147 147 145 146 151 155 159 161 163 164 164 164 162 155 152 150 146 144 144 145 147 149 149 147 147 145 140 141 145 145 150 155 153 146 144 147 149 147 150 160 170 185 318 359 3 13 74 87 79 66 51 29 19
198 199 201 204 205 205 205 207 209 209 205 195 190 189 187 190 192 190 188 186 182 176 176 177 173 171 170 165 163 161 159 156 153 151 150 150 154 155 158 163 163 163 163 165 166 163 160 158 154 149 147 147 147 147 147 148 145 143 142 143 146 146 147 152 154 149 147 149 151 156 164 171 178 183 221 315 330 344 23 53 56 53 42 14 357
Height
5889 5889 5888 5888 5889 5889 5889 5889 5889 5890 5890 5890 5891 5891 5892 5892 5893 5894 5896 5897 5898 5898 5897 5897 5896 5896 5896 5897 5898 5898 5898 5898 5898 5899 5899 5900 5900 5901 5901 5901 5901 5901 5901 5901 5902 5901 5900 5900 5900 5899 5900 5902 5902 5902 5901 5901 5901 5902 5903 5903 5903 5903 5904 5904 5905 5905 5905 5905 5905 5905 5905 5905 5906 5907 5907 5908 5908 5909 5909 5909 5909 5908 5908 5909 5909
5890 5890 5889 5890 5890 5890 5890 5890 5890 5891 5891 5891 5891 5892 5892 5893 5894 5894 5896 5897 5898 5899 5899 5898 5897 5897 5897 5898 5899 5899 5899 5899 5899 5900 5900 5901 5901 5901 5901 5901 5901 5901 5901 5901 5902 5902 5901 5900 5900 5900 5902 5902 5902 5902 5902 5902 5902 5902 5903 5904 5903 5903 5904 5905 5905 5905 5906 5906 5906 5906 5906 5907 5907 5908 5909 5909 5910 5910 5910 5909 5909 5909 5909 5910 5910
5891 5891 5891 5891 5891 5891 5891 5891 5891 5892 5892 5892 5892 5893 5893 5893 5894 5895 5896 5897 5898 5899 5899 5899 5899 5898 5898 5898 5899 5900 5900 5900 5900 5901 5901 5902 5902 5902 5902 5902 5902 5902 5902 5901 5901 5901 5901 5900 5900 5901 5902 5903 5902 5903 5902 5902 5903 5904 5904 5904 5904 5904 5905 5905 5906 5906 5907 5907 5907 5908 5908 5909 5909 5909 5910 5911 5911 5911 5911 5911 5910 5910 5910 5911 5911
5891 5891 5891 5891 5892 5892 5892 5892 5893 5893 5893 5893 5893 5894 5894 5894 5895 5896 5897 5897 5898 5899 5900 5900 5900 5899 5899 5899 5899 5900 5900 5900 5901 5901 5902 5902 5903 5903 5903 5903 5902 5902 5902 5902 5901 5901 5900 5900 5900 5900 5902 5904 5904 5904 5903 5903 5904 5905 5905 5904 5905 5905 5905 5906 5907 5907 5908 5908 5908 5909 5910 5910 5910 5911 5911 5912 5912 5912 5912 5912 5911 5911 5912 5912 5912
5893 5892 5892 5892 5892 5893 5893 5893 5894 5894 5894 5894 5894 5895 5895 5896 5897 5897 5898 5898 5899 5899 5900 5901 5901 5900 5900 5900 5900 5900 5900 5901 5901 5901 5902 5903 5904 5904 5904 5903 5903 5903 5902 5902 5902 5901 5900 5900 5900 5900 5902 5904 5905 5905 5905 5906 5907 5906 5905 5905 5905 5905 5906 5907 5908 5909 5909 5910 5910 5910 5911 5911 5911 5912 5912 5913 5913 5913 5913 5913 5913 5913 5913 5913 5913
5894 5893 5893 5893 5894 5894 5894 5894 5895 5895 5895 5895 5896 5896 5897 5897 5898 5898 5898 5898 5899 5899 5900 5901 5901 5901 5901 5901 5901 5900 5900 5900 5901 5901 5902 5904 5904 5904 5904 5904 5904 5903 5902 5902 5901 5901 5901 5901 5901 5901 5903 5904 5905 5905 5906 5907 5906 5906 5905 5905 5906 5906 5907 5908 5909 5910 5910 5911 5911 5912 5912 5912 5912 5913 5913 5914 5914 5914 5914 5914 5914 5914 5914 5914 5914
5895 5895 5895 5895 5895 5895 5895 5896 5896 5896 5896 5897 5897 5898 5898 5899 5899 5899 5899 5899 5899 5900 5901 5901 5902 5902 5902 5902 5901 5901 5900 5900 5901 5902 5904 5904 5904 5904 5904 5904 5904 5903 5903 5902 5902 5902 5902 5902 5902 5903 5903 5903 5904 5904 5906 5906 5905 5906 5906 5906 5907 5907 5908 5909 5910 5911 5912 5912 5913 5913 5913 5913 5914 5914 5914 5914 5914 5914 5914 5915 5915 5915 5915 5915 5915
5897 5896 5896 5896 5896 5897 5897 5897 5897 5897 5897 5898 5899 5899 5900 5900 5900 5900 5900 5900 5900 5901 5901 5902 5903 5903 5903 5902 5902 5900 5900 5901 5903 5905 5905 5905 5904 5904 5905 5905 5903 5903 5903 5903 5904 5903 5903 5903 5903 5903 5903 5903 5903 5904 5905 5905 5906 5907 5907 5908 5908 5909 5910 5910 5911 5912 5913 5913 5914 5914 5914 5914 5915 5915 5915 5915 5915 5915 5915 5916 5916 5916 5916 5916 5916
5898 5898 5897 5897 5897 5898 5898 5898 5898 5898 5899 5899 5900 5900 5901 5901 5901 5901 5901 5901 5901 5902 5902 5903 5903 5903 5903 5903 5901 5900 5901 5904 5906 5905 5906 5906 5905 5905 5905 5905 5904 5904 5904 5904 5904 5904 5903 5904 5904 5904 5904 5905 5905 5905 5905 5906 5907 5908 5909 5910 5910 5911 5912 5912 5912 5913 5914 5914 5915 5915 5915 5915 5916 5916 5916 5916 5916 5916 5916 5917 5917 5917 5917 5917 5917
5899 5899 5899 5898 5898 5898 5899 5899 5899 5899 5900 5900 5900 5901 5901 5902 5902 5902 5902 5902 5902 5903 5903 5903 5904 5904 5904 5903 5901 5900 5904 5907 5906 5905 5906 5906 5905 5905 5905 5905 5904 5905 5905 5904 5904 5904 5904 5904 5904 5905 5905 5906 5907 5907 5907 5908 5909 5909 5910 5911 5912 5913 5913 5913 5914 5914 5915 5915 5916 5916 5916 5916 5916 5916 5916 5916 5917 5917 5917 5918 5918 5918 5918 5918 5918
5901 5900 5900 5900 5899 5899 5900 5900 5900 5900 5901 5901 5901 5902 5902 5903 5903 5903 5903 5903 5903 5903 5904 5904 5905 5905 5904 5904 5901 5902 5907 5909 5907 5905 5906 5906 5906 5906 5906 5906 5905 5906 5906 5905 5905 5905 5905 5905 5905 5906 5906 5907 5908 5908 5909 5910 5910 5911 5912 5912 5913 5914 5914 5914 5915 5915 5916 5916 5917 5917 5917 5917 5917 5917 5917 5917 5917 5918 5918 5918 5918 5919 5919 5919 5919
5902 5901 5901 5901 5901 5900 5900 5901 5901 5901 5901 5901 5902 5903 5903 5904 5904 5904 5904 5904 5904 5904 5905 5905 5906 5906 5906 5905 5902 5904 5908 5910 5908 5906 5906 5907 5907 5907 5907 5907 5906 5906 5907 5906 5906 5906 5906 5906 5906 5907 5907 5908 5909 5910 5911 5911 5912 5912 5913 5914 5914 5915 5915 5916 5916 5916 5917 5917 5918 5918 5918 5918 5918 5918 5918 5918 5918 5919 5919 5919 5919 5920 5920 5920 5920
5903 5903 5902 5902 5902 5901 5901 5901 5901 5902 5902 5903 5903 5904 5904 5905 5905 5905 5904 5904 5905 5905 5906 5906 5907 5907 5907 5906 5904 5905 5909 5911 5910 5908 5908 5909 5909 5908 5908 5907 5907 5907 5907 5907 5907 5907 5907 5907 5907 5908 5908 5909 5910 5911 5912 5913 5913 5913 5914 5915 5915 5916 5916 5917 5918 5918 5918 5918 5919 5919 5918 5919 5919 5919 5919 5919 5919 5920 5920 5920 5921 5921 5921 5921 5921
5903 5903 5903 5903 5903 5902 5902 5902 5902 5903 5903 5904 5904 5905 5906 5906 5906 5906 5905 5905 5905 5906 5907 5907 5907 5908 5908 5907 5905 5906 5909 5912 5911 5910 5909 5910 5910 5910 5909 5909 5908 5908 5908 5908 5908 5908 5908 5908 5909 5909 5910 5911 5911 5912 5913 5913 5914 5915 5915 5915 5916 5917 5917 5918 5919 5919 5919 5920 5920 5919 5919 5919 5920 5920 5920 5921 5921 5921 5921 5922 5922 5922 5923 5922 5923
5904 5904 5904 5904 5904 5904 5904 5904 5904 5904 5904 5905 5906 5907 5907 5907 5907 5908 5907 5906 5906 5907 5907 5908 5908 5909 5909 5908 5906 5906 5909 5911 5912 5911 5911 5910 5911 5911 5910 5910 5909 5909 5909 5909 5909 5909 5909 5910 5910 5910 5911 5912 5912 5913 5913 5914 5915 5916 5917 5917 5917 5918 5919 5919 5920 5920 5920 5921 5920 5920 5920 5920 5921 5921 5922 5922 5922 5922 5923 5923 5924 5924 5924 5924 5924
5906 5905 5905 5905 5905 5905 5905 5905 5905 5906 5906 5907 5907 5908 5908 5908 5908 5909 5908 5907 5908 5908 5909 5909 5910 5910 5910 5909 5907 5907 5908 5910 5912 5912 5912 5911 5911 5911 5911 5911 5910 5910 5909 5910 5910 5910 5910 5911 5911 5912 5912 5913 5914 5914 5915 5916 5917 5918 5918 5919 5919 5919 5920 5921 5921 5921 5921 5921 5921 5921 5921 5922 5922 5923 5923 5923 5923 5924 5924 5925 5925 5925 5925 5925 5926
5907 5907 5907 5907 5907 5907 5906 5906 5907 5907 5908 5908 5908 5908 5908 5909 5910 5910 5909 5908 5909 5910 5910 5911 5911 5911 5911 5910 5909 5908 5908 5909 5910 5911 5912 5911 5911 5912 5911 5911 5911 5910 5910 5911 5911 5911 5912 5912 5913 5913 5914 5914 5915 5916 5917 5918 5919 5919 5920 5920 5920 5921 5921 5922 5922 5922 5922 5922 5922 5923 5923 5923 5924 5924 5924 5925 5925 5925 5926 5926 5927 5927 5927 5927 5927
5909 5909 5908 5908 5908 5908 5908 5908 5908 5909 5909 5909 5909 5909 5909 5910 5910 5910 5910 5910 5910 5911 5912 5912 5912 5912 5912 5912 5912 5911 5910 5909 5909 5910 5911 5911 5912 5912 5911 5912 5911 5911 5911 5912 5912 5913 5913 5914 5914 5915 5916 5916 5917 5918 5918 5919 5920 5920 5921 5921 5922 5922 5923 5923 5923 5923 5923 5923 5923 5924 5924 5925 5925 5925 5926 5926 5927 5927 5928 5928 5928 5928 5928 5929 5928
5910 5910 5910 5910 5910 5910 5909 5910 5910 5910 5910 5910 5910 5910 5911 5911 5911 5911 5911 5911 5912 5912 5913 5913 5913 5913 5914 5914 5914 5913 5913 5911 5910 5910 5911 5911 5912 5912 5912 5912 5912 5912 5912 5913 5914 5914 5915 5916 5916 5917 5918 5918 5919 5920 5920 5920 5921 5922 5922 5923 5923 5924 5924 5924 5924 5924 5924 5925 5925 5925 5926 5926 5927 5927 5928 5928 5928 5929 5929 5929 5929 5930 5930 5930 5929
5911 5911 5911 5911 5911 5911 5911 5911 5911 5911 5911 5911 5911 5912 5912 5912 5912 5912 5912 5913 5913 5913 5914 5914 5914 5914 5915 5915 5915 5915 5915 5914 5913 5912 5912 5912 5912 5912 5913 5913 5913 5913 5914 5915 5916 5916 5917 5918 5919 5919 5920 5920 5921 5921 5921 5922 5922 5923 5924 5924 5924 5924 5925 5925 5925 5925 5925 5926 5926 5927 5928 5928 5928 5929 5930 5930 5930 5930 5931 5931 5931 5931 5931 5931 5931
5913 5913 5913 5913 5913 5913 5913 5913 5912 5912 5912 5912 5912 5913 5913 5913 5913 5913 5914 5914 5914 5914 5915 5915 5915 5915 5916 5916 5916 5916 5916 5916 5916 5915 5914 5914 5913 5913 5914 5914 5914 5915 5916 5917 5918 5919 5919 5920 5921 5921 5922 5922 5922 5923 5923 5923 5924 5924 5925 5925 5925 5925 5925 5925 5926 5926 5927 5928 5928 5929 5929 5930 5930 5931 5932 5932 5932 5932 5932 5933 5933 5933 5932 5932 5932
5914 5914 5914 5914 5914 5914 5914 5914 5914 5913 5913 5913 5914 5914 5914 5914 5915 5915 5915 5915 5915 5915 5916 5916 5916 5917 5917 5918 5918 5918 5917 5917 5918 5917 5916 5916 5916 5916 5916 5916 5916 5917 5918 5919 5920 5921 5921 5922 5922 5923 5923 5924 5924 5924 5924 5925 5925 5925 5926 5926 5926 5926 5927 5927 5928 5928 5929 5930 5930 5930 5931 5932 5932 5933 5933 5933 5934 5934 5934 5934 5934 5934 5934 5933 5933
5915 5915 5915 5915 5915 5915 5915 5915 5915 5915 5915 5915 5915 5916 5916 5916 5916 5917 5917 5917 5917 5917 5917 5917 5917 5918 5918 5919 5919 5919 5919 5919 5919 5919 5918 5918 5918 5918 5918 5918 5918 5919 5919 5920 5921 5922 5923 5924 5924 5925 5925 5925 5925 5925 5926 5926 5927 5927 5927 5928 5928 5928 5928 5929 5929 5930 5931 5931 5932 5932 5933 5933 5934 5934 5935 5935 5936 5936 5936 5936 5935 5935 5935 5935 5935
5916 5916 5916 5916 5916 5917 5917 5917 5917 5917 5917 5917 5917 5917 5917 5917 5917 5918 5918 5918 5918 5918 5918 5918 5919 5919 5920 5920 5920 5920 5920 5920 5920 5920 5920 5920 5920 5920 5920 5920 5920 5921 5921 5922 5923 5924 5924 5925 5926 5926 5926 5926 5927 5927 5927 5928 5928 5928 5929 5929 5929 5929 5930 5931 5931 5932 5933 5933 5934 5934 5935 5935 5936 5936 5937 5937 5938 5937 5937 5937 5936 5936 5936 5936 5936
5917 5917 5917 5918 5918 5918 5918 5919 5919 5919 5919 5918 5918 5918 5918 5918 5918 5919 5920 5920 5919 5919 5919 5920 5920 5920 5921 5921 5921 5921 5921 5921 5922 5922 5922 5922 5921 5921 5922 5922 5922 5922 5923 5924 5924 5925 5926 5927 5927 5928 5928 5928 5928 5928 5929 5929 5930 5931 5931 5930 5931 5931 5932 5933 5933 5934 5935 5935 5936 5936 5937 5937 5938 5939 5939 5939 5939 5939 5938 5938 5938 5938 5938 5938 5938
5918 5919 5919 5920 5920 5920 5920 5920 5920 5920 5920 5920 5920 5919 5919 5920 5920 5920 5921 5921 5921 5921 5921 5921 5921 5922 5922 5922 5922 5922 5923 5923 5923 5924 5924 5923 5923 5923 5923 5923 5924 5924 5925 5925 5926 5927 5927 5928 5928 5929 5929 5929 5929 5930 5930 5931 5932 5933 5933 5932 5933 5934 5934 5935 5935 5936 5937 5937 5938 5938 5939 5939 5940 5941 5941 5941 5940 5940 5939 5939 5939 5939 5939 5939 5939
5919 5920 5921 5921 5921 5922 5922 5922 5922 5922 5922 5921 5921 5921 5921 5921 5922 5922 5922 5922 5922 5922 5922 5922 5923 5923 5923 5924 5924 5924 5924 5924 5925 5925 5925 5925 5925 5924 5925 5925 5925 5926 5926 5927 5927 5928 5928 5929 5929 5930 5930 5930 5931 5931 5932 5933 5933 5934 5935 5935 5935 5936 5936 5937 5937 5938 5939 5939 5940 5940 5941 5941 5942 5942 5942 5942 5941 5941 5941 5941 5941 5941 5941 5941 5941
5920 5921 5922 5923 5923 5923 5923 5923 5924 5923 5923 5923 5923 5923 5923 5923 5923 5924 5924 5924 5924 5924 5924 5924 5924 5925 5925 5925 5926 5926 5926 5926 5926 5926 5926 5926 5926 5926 5926 5927 5927 5927 5928 5928 5929 5929 5930 5930 5931 5931 5932 5932 5933 5933 5934 5935 5935 5936 5937 5937 5937 5938 5938 5939 5940 5940 5941 5941 5942 5942 5943 5943 5943 5943 5943 5943 5942 5942 5942 5942 5943 5943 5943 5943 5943
5921 5922 5923 5924 5924 5925 5925 5925 5925 5925 5925 5925 5925 5925 5925 5925 5925 5925 5925 5925 5925 5925 5925 5926 5926 5926 5927 5927 5927 5927 5928 5928 5928 5928 5928 5928 5928 5928 5928 5928 5928 5929 5929 5930 5930 5931 5931 5931 5932 5933 5933 5934 5935 5935 5936 5937 5937 5938 5939 5939 5939 5939 5940 5941 5942 5942 5942 5943 5943 5944 5944 5944 5944 5944 5944 5944 5944 5944 5944 5944 5944 5944 5944 5944 5944
5922 5923 5924 5924 5925 5926 5926 5926 5927 5927 5927 5926 5926 5927 5927 5927 5927 5927 5927 5927 5927 5927 5927 5927 5928 5928 5928 5929 5929 5929 5929 5929 5929 5929 5929 5929 5929 5929 5930 5930 5930 5930 5931 5931 5932 5932 5933 5933 5934 5934 5935 5936 5937 5937 5938 5939 5939 5940 5940 5941 5941 5941 5942 5943 5944 5944 5944 5945 5945 5946 5946 5946 5945 5945 5945 5945 5945 5945 5946 5946 5946 5946 5946 5946 5946
5922 5923 5924 5925 5926 5927 5927 5928 5928 5928 5928 5928 5928 5928 5928 5929 5929 5929 5928 5928 5928 5929 5929 5929 5930 5930 5930 5930 5931 5931 5931 5931 5931 5931 5931 5931 5931 5931 5931 5931 5932 5932 5933 5933 5933 5934 5934 5935 5936 5936 5937 5938 5939 5939 5940 5941 5941 5942 5942 5943 5943 5943 5944 5945 5946 5946 5946 5947 5947 5947 5947 5947 5946 5946 5946 5947 5947 5947 5947 5947 5948 5948 5948 5948 5947
5923 5924 5925 5926 5927 5927 5928 5929 5929 5930 5930 5930 5930 5930 5930 5931 5931 5931 5930 5930 5930 5930 5931 5931 5931 5931 5931 5932 5932 5932 5932 5932 5932 5932 5932 5932 5932 5932 5932 5933 5933 5934 5934 5935 5935 5936 5936 5937 5938 5938 5939 5940 5940 5941 5942 5943 5944 5944 5944 5945 5945 5945 5946 5947 5947 5947 5948 5948 5948 5948 5948 5948 5947 5947 5948 5948 5948 5949 5949 5949 5949 5949 5949 5949 5949
5924 5925 5925 5926 5927 5928 5929 5929 5930 5931 5931 5932 5932 5932 5932 5932 5933 5932 5932 5932 5932 5932 5933 5933 5933 5933 5933 5933 5934 5934 5934 5934 5934 5934 5934 5934 5934 5934 5934 5934 5935 5935 5936 5937 5937 5938 5939 5939 5940 5940 5941 5942 5942 5943 5944 5945 5946 5946 5946 5947 5947 5947 5948 5948 5949 5949 5949 5949 5949 5949 5949 5949 5949 5949 5949 5949 5950 5950 5950 5951 5951 5951 5951 5950 5950
5924 5925 5926 5927 5928 5928 5929 5930 5931 5932 5933 5933 5933 5933 5934 5934 5934 5934 5934 5934 5934 5934 5935 5935 5935 5935 5935 5935 5935 5936 5936 5935 5935 5936 5936 5936 5936 5936 5936 5936 5937 5937 5938 5939 5939 5940 5941 5941 5942 5942 5943 5944 5945 5945 5946 5947 5948 5948 5948 5948 5949 5949 5950 5950 5950 5950 5950 5950 5950 5950 5950 5950 5950 5950 5951 5951 5951 5951 5952 5952 5952 5952 5952 5952 5952
5925 5926 5927 5927 5928 5929 5930 5931 5931 5933 5933 5934 5934 5935 5935 5935 5936 5936 5936 5936 5935 5936 5936 5937 5937 5937 5937 5937 5937 5937 5937 5937 5937 5937 5937 5937 5937 5938 5938 5939 5939 5940 5940 5941 5942 5943 5943 5943 5944 5945 5945 5946 5947 5947 5948 5948 5950 5950 5950 5951 5951 5951 5951 5951 5951 5951 5951 5951 5952 5951 5951 5951 5951 5952 5952 5953 5953 5953 5953 5953 5953 5953 5953 5953 5953
5925 5926 5927 5928 5929 5930 5931 5931 5932 5933 5934 5935 5936 5936 5936 5937 5937 5937 5937 5937 5937 5937 5938 5939 5939 5939 5939 5939 5939 5939 5939 5939 5939 5939 5939 5939 5939 5940 5940 5941 5942 5942 5943 5943 5944 5944 5945 5945 5946 5947 5948 5948 5949 5949 5950 5951 5952 5952 5952 5953 5953 5953 5953 5953 5952 5953 5953 5953 5953 5953 5953 5952 5953 5953 5954 5954 5954 5954 5954 5955 5955 5955 5955 5955 5955
5926 5927 5928 5929 5930 5931 5931 5932 5933 5934 5935 5936 5936 5937 5938 5938 5939 5939 5939 5939 5939 5939 5940 5940 5941 5941 5941 5941 5941 5941 5941 5941 5941 5941 5940 5940 5941 5942 5942 5943 5943 5944 5944 5945 5946 5946 5946 5947 5947 5948 5949 5950 5951 5951 5952 5953 5953 5954 5954 5954 5955 5955 5954 5954 5954 5954 5954 5954 5954 5954 5954 5954 5954 5954 5955 5955 5956 5956 5956 5956 5956 5956 5956 5956 5956
5927 5928 5928 5929 5930 5931 5932 5933 5934 5934 5935 5936 5937 5938 5939 5939 5940 5940 5941 5941 5941 5941 5941 5941 5942 5942 5942 5942 5942 5942 5943 5943 5943 5943 5942 5942 5942 5943 5944 5944 5945 5945 5946 5947 5947 5947 5948 5949 5949 5950 5951 5951 5952 5953 5954 5954 5955 5955 5955 5956 5956 5956 5956 5956 5956 5956 5956 5956 5955 5955 5955 5955 5955 5955 5956 5957 5957 5957 5957 5958 5957 5957 5957 5957 5958
5927 5928 5929 5929 5930 5932 5933 5934 5934 5935 5936 5937 5938 5939 5940 5941 5941 5941 5942 5942 5942 5942 5942 5942 5943 5943 5943 5943 5943 5944 5944 5944 5944 5944 5944 5944 5944 5944 5945 5945 5946 5947 5948 5948 5949 5949 5950 5950 5951 5952 5952 5953 5953 5954 5955 5955 5955 5956 5957 5957 5957 5957 5957 5957 5957 5957 5957 5957 5957 5957 5956 5956 5957 5957 5957 5957 5958 5958 5959 5959 5959 5959 5959 5959 5959
5926 5928 5929 5929 5930 5932 5933 5934 5935 5936 5936 5937 5938 5939 5940 5941 5942 5942 5943 5943 5943 5943 5943 5943 5944 5944 5944 5945 5945 5945 5946 5946 5946 5946 5945 5946 5946 5946 5946 5947 5947 5948 5949 5950 5951 5951 5951 5952 5952 5953 5954 5954 5954 5955 5955 5956 5956 5957 5957 5958 5958 5958 5958 5958 5958 5958 5958 5958 5958 5958 5958 5958 5958 5958 5958 5958 5959 5959 5960 5960 5960 5960 5960 5960 5960
5926 5928 5929 5930 5930 5932 5933 5934 5935 5936 5937 5938 5939 5940 5941 5942 5943 5943 5943 5943 5943 5944 5944 5944 5945 5945 5945 5946 5946 5947 5947 5947 5947 5947 5947 5947 5947 5948 5948 5948 5948 5949 5950 5951 5952 5952 5953 5953 5953 5954 5954 5955 5955 5955 5956 5956 5956 5957 5958 5958 5958 5958 5958 5959 5959 5960 5960 5960 5959 5960 5960 5960 5960 5959 5959 5959 5960 5960 5961 5961 5961 5961 5961 5961 5961
5926 5928 5929 5930 5931 5932 5933 5935 5936 5937 5938 5939 5940 5941 5942 5943 5943 5944 5944 5944 5944 5944 5945 5945 5945 5946 5946 5946 5947 5947 5948 5948 5948 5948 5948 5948 5948 5949 5949 5949 5950 5950 5951 5951 5952 5953 5953 5954 5954 5955 5955 5956 5956 5956 5956 5956 5957 5957 5958 5958 5958 5959 5959 5959 5960 5960 5961 5961 5961 5961 5961 5961 5961 5961 5960 5960 5960 5961 5961 5962 5962 5962 5962 5962 5962
5927 5928 5929 5930 5931 5932 5933 5935 5936 5937 5938 5939 5940 5941 5942 5943 5944 5944 5944 5945 5945 5945 5945 5946 5946 5946 5946 5947 5947 5948 5948 5949 5949 5949 5949 5950 5950 5950 5951 5951 5951 5951 5951 5952 5953 5953 5954 5954 5955 5955 5956 5957 5957 5957 5957 5957 5958 5958 5958 5958 5959 5960 5960 5960 5960 5961 5962 5962 5962 5962 5962 5963 5963 5963 5962 5961 5961 5962 5962 5963 5963 5963 5963 5963 5963
5927 5928 5929 5930 5931 5932 5933 5934 5936 5937 5938 5939 5940 5942 5943 5944 5944 5944 5944 5945 5945 5946 5946 5946 5946 5947 5947 5947 5948 5948 5949 5949 5950 5950 5951 5951 5951 5952 5952 5952 5952 5952 5952 5953 5953 5953 5954 5955 5956 5956 5957 5957 5957 5957 5957 5958 5958 5959 5959 5959 5960 5960 5960 5960 5961 5961 5962 5963 5963 5963 5963 5964 5964 5964 5964 5963 5963 5963 5963 5964 5964 5964 5964 5964 5963
5926 5927 5928 5930 5931 5932 5933 5935 5936 5937 5938 5939 5940 5941 5943 5943 5944 5944 5945 5945 5946 5946 5947 5947 5947 5947 5948 5948 5948 5948 5949 5949 5950 5951 5952 5952 5953 5953 5953 5953 5953 5953 5953 5953 5953 5954 5955 5956 5957 5957 5958 5958 5958 5958 5958 5958 5959 5959 5959 5960 5960 5960 5961 5961 5961 5962 5962 5963 5964 5964 5964 5965 5965 5965 5965 5965 5964 5964 5964 5964 5964 5964 5964 5964 5964
5925 5926 5928 5929 5931 5932 5933 5934 5935 5936 5937 5938 5940 5941 5942 5943 5944 5945 5945 5946 5946 5946 5947 5947 5947 5948 5948 5948 5948 5948 5949 5950 5950 5951 5952 5953 5953 5953 5953 5953 5953 5953 5953 5954 5954 5955 5956 5956 5957 5957 5958 5958 5959 5959 5959 5959 5959 5959 5959 5960 5960 5961 5961 5961 5962 5962 5963 5963 5964 5965 5965 5966 5966 5966 5966 5966 5965 5965 5965 5965 5965 5965 5965 5965 5965
5924 5926 5927 5929 5930 5931 5933 5934 5935 5936 5937 5938 5939 5940 5942 5943 5944 5945 5945 5946 5946 5946 5946 5947 5947 5947 5948 5948 5948 5949 5949 5950 5950 5951 5952 5952 5953 5953 5953 5953 5953 5954 5954 5955 5955 5955 5956 5956 5956 5957 5957 5958 5958 5959 5959 5959 5959 5959 5960 5960 5960 5961 5961 5962 5962 5963 5963 5964 5964 5965 5966 5967 5967 5967 5967 5967 5966 5966 5966 5966 5966 5966 5966 5966 5966
5923 5925 5927 5928 5930 5931 5932 5933 5934 5935 5936 5937 5938 5940 5941 5942 5943 5944 5945 5946 5946 5946 5946 5946 5946 5947 5947 5948 5948 5949 5949 5950 5950 5951 5951 5952 5952 5953 5953 5953 5954 5955 5955 5955 5956 5956 5956 5956 5956 5956 5957 5957 5958 5959 5959 5960 5960 5960 5960 5960 5961 5961 5962 5962 5963 5963 5963 5964 5964 5965 5966 5967 5967 5968 5968 5968 5967 5967 5966 5966 5966 5966 5967 5967 5967
5923 5925 5926 5928 5929 5931 5932 5933 5934 5934 5935 5937 5938 5939 5940 5942 5943 5943 5944 5945 5946 5946 5946 5946 5946 5947 5947 5948 5948 5949 5949 5949 5950 5950 5951 5952 5952 5953 5954 5954 5955 5955 5956 5956 5956 5956 5956 5956 5956 5956 5957 5957 5958 5959 5959 5959 5960 5961 5961 5961 5961 5961 5962 5963 5963 5963 5963 5964 5965 5965 5966 5966 5967 5968 5968 5968 5968 5968 5967 5967 5967 5967 5967 5967 5967
5922 5924 5926 5927 5929 5930 5932 5933 5934 5934 5935 5937 5938 5939 5940 5941 5942 5943 5944 5944 5945 5946 5946 5946 5946 5947 5947 5947 5948 5949 5949 5949 5950 5951 5951 5952 5953 5953 5954 5954 5955 5955 5956 5956 5956 5957 5957 5957 5957 5957 5957 5957 5958 5958 5959 5959 5960 5961 5961 5961 5961 5961 5962 5963 5963 5963 5963 5964 5965 5965 5966 5967 5967 5968 5969 5969 5969 5969 5968 5968 5968 5968 5968 5968 5968
5922 5923 5925 5926 5928 5929 5931 5932 5933 5934 5936 5937 5938 5939 5940 5941 5942 5943 5944 5944 5945 5945 5946 5947 5947 5947 5947 5947 5948 5949 5949 5950 5950 5951 5952 5952 5953 5953 5954 5954 5955 5955 5956 5956 5957 5957 5957 5957 5957 5957 5957 5957 5958 5958 5959 5960 5960 5961 5961 5961 5962 5962 5962 5963 5963 5963 5963 5964 5965 5966 5966 5967 5967 5968 5968 5969 5969 5969 5969 5968 5968 5968 5968 5968 5968